Lynchburg, VA

4:07 PM EDT on October 16, 2019 (GMT -0400)
Lynchburg Regional-Glenn

Weather History for KLYH - August, 2019

Change the Weather History Date:

Friday, August 16, 2019

  Actual Average Record
Temperature  
Mean Temperature 78 °F 74 °F  
Max Temperature 87 °F 86 °F 98 °F (1900)
Min Temperature 68 °F 63 °F 50 °F (1979)
Degree Days  
Heating Degree Days 0 0  
Month to date heating degree days 0 0  
Since 1 June heating degree days 2 15  
Since 1 July heating degree days 0 1  
Cooling Degree Days 13 9  
Month to date cooling degree days 203 158  
Year to date cooling degree days 1058 772  
Since 1 June cooling degree days 846 690  
Growing Degree Days 28 (Base 50)    
Moisture  
Dew Point 71 °F    
Average Humidity 81    
Maximum Humidity 100    
Minimum Humidity 61    
Precipitation  
Precipitation 0.00 in 0.10 in 2.59 in (1928)
Month to date precipitation 2.41 1.69  
Year to date precipitation 26.75 26.36  
Snow  
Snow 0.00 in - - ()
Month to date snowfall 0.0  
Since 1 June snowfall 0.0  
Since 1 July snowfall 0.0  
Snow Depth 0.00 in    
Sea Level Pressure  
Sea Level Pressure 30.00 in    
Wind  
Wind Speed 2 mph (East)    
Max Wind Speed 12 mph    
Max Gust Speed 14 mph    
Visibility 9 miles    
Events Fog    
T = Trace of Precipitation, MM = Missing Value Source: NWS Daily Summary

Daily Weather History Graph

Daily Weather History Graph

Search for Another Location

Airport or City:

Astronomy

Aug. 16, 2019 Rise Set
Actual Time 6:33 AM EDT 8:07 PM EDT
Civil Twilight 6:06 AM EDT 8:35 PM EDT
Nautical Twilight 5:32 AM EDT 9:08 PM EDT
Astronomical Twilight 4:57 AM EDT 9:43 PM EDT
Moon 9:07 PM EDT 7:23 AM EDT
Length of Visible Light 14h 29m
Length of Day
13h 34m
Full, 99% of the Moon is Illuminated
Aug 16
Full
Aug 23
Last Quarter
Aug 30
New
Sep 5
First Quarter
Sep 14
Full

Hourly Weather History & Observations

Time (EDT) Temp. Heat Index Dew Point Humidity Pressure Visibility Wind Dir Wind Speed Gust Speed Precip Events Conditions
6:30 AM 69.8 °F - 69.8 °F 100% 30.01 in 1.8 mi Calm Calm - N/A   Overcast
6:54 AM 69.8 °F - 69.8 °F 100% 30.02 in 1.5 mi North 3.5 mph - N/A   Overcast
7:54 AM 71.6 °F - 71.6 °F 100% 30.02 in 0.5 mi Calm Calm - N/A Fog Fog
8:54 AM 71.6 °F - 69.8 °F 94% 30.03 in 4.0 mi NNE 4.6 mph - N/A   Overcast
9:54 AM 73.4 °F - 71.6 °F 94% 30.04 in 10.0 mi NNE 4.6 mph - N/A   Overcast
10:54 AM 75.9 °F - 70.0 °F 82% 30.01 in 10.0 mi NE 4.6 mph - N/A   Overcast
11:54 AM 75.9 °F - 71.1 °F 85% 30.02 in 10.0 mi NE 4.6 mph - N/A   Overcast
12:41 PM 79.0 °F - 71.1 °F 77% 30.05 in 10.0 mi East 5.8 mph - N/A   Overcast
12:54 PM 80.1 °F 83.6 °F 71.1 °F 74% 30.01 in 10.0 mi Calm Calm - N/A   Overcast
1:54 PM 82.9 °F 88.0 °F 72.0 °F 69% 30.00 in 10.0 mi ENE 4.6 mph - N/A   Mostly Cloudy
2:19 PM 84.0 °F 89.6 °F 72.0 °F 67% 30.03 in 10.0 mi Variable 4.6 mph - N/A   Mostly Cloudy
2:26 PM 84.0 °F 89.6 °F 72.0 °F 67% 30.03 in 10.0 mi SE 5.8 mph - N/A   Mostly Cloudy
2:54 PM 84.9 °F 90.1 °F 71.1 °F 63% 29.99 in 10.0 mi East 3.5 mph - N/A   Partly Cloudy
3:54 PM 86.0 °F 92.2 °F 72.0 °F 63% 29.96 in 10.0 mi SSE 6.9 mph - N/A   Partly Cloudy
4:54 PM 86.0 °F 91.5 °F 71.1 °F 61% 29.96 in 10.0 mi South 8.1 mph - N/A   Partly Cloudy
5:54 PM 84.9 °F 90.1 °F 71.1 °F 63% 29.95 in 10.0 mi SSE 3.5 mph - N/A   Scattered Clouds
6:54 PM 84.9 °F 90.1 °F 71.1 °F 63% 29.94 in 10.0 mi SSW 3.5 mph - N/A   Clear
7:54 PM 81.0 °F 85.8 °F 73.0 °F 77% 29.96 in 10.0 mi SE 3.5 mph - N/A   Clear
8:54 PM 75.0 °F - 73.0 °F 94% 29.97 in 10.0 mi Calm Calm - N/A   Clear
9:54 PM 73.9 °F - 72.0 °F 93% 29.98 in 10.0 mi Calm Calm - N/A   Clear
10:54 PM 73.0 °F - 72.0 °F 96% 29.99 in 10.0 mi Calm Calm - N/A   Clear
11:54 PM 71.1 °F - 71.1 °F 100% 29.99 in 8.0 mi Calm Calm - N/A   Clear